Regional Weather Roundup
Issued by NWS Nashville, TN

Home | Current Version | Previous Version | Text Only | Print | Product List | Glossary On
Versions: 1 2 3 4 5 6 7 8 9 10 11 12 13 14 15 16 17 18 19 20 21 22 23 24 25 26 27 28 29 30 31 32 33 34 35 36 37 38 39 40 41 42 43 44 45 46 47 48 49 50
841
ASUS44 KOHX 240310
RWROHX
MIDDLE TENNESSEE HOURLY WEATHER ROUNDUP
NATIONAL WEATHER SERVICE NASHVILLE TN
1000 PM CDT MON OCT 23 2017

NOTE: "FAIR" INDICATES FEW OR NO CLOUDS BELOW 12,000 FEET WITH
NO SIGNIFICANT WEATHER AND/OR OBSTRUCTIONS TO VISIBILITY.

* THESE REPORTS ARE NOT UNDER NWS QUALITY CONTROL AND MAY NOT
  REPORT WEATHER SUCH AS PRECIPITATION AND FOG.


TNZ005>011-023>034-057-059-062>066-078-080-240400
...NORTHERN MIDDLE TENNESSEE...

CITY           SKY/WX    TMP DP  RH WIND       PRES   REMARKS
CLARKSVILLE    MOCLDY    53  46  77 S5        29.86F
CROSSVILLE     CLEAR     47  46  97 SW6       29.95R
DICKSON          N/A     50  46  85 S8        29.88F
NASHVILLE      CLEAR     53  47  79 S7        29.92F
PORTLAND       CLEAR     50  48  93 S8        29.89F
SMYRNA         CLEAR     49  47  93 S5        29.94F
SPARTA         CLEAR     46  46 100 CALM      29.93S
SPRINGFIELD    CLEAR     52  48  87 S9        29.86F
WEST NASHVILLE CLEAR     54  48  82 S3        29.89F
$$
TNZ056-058-060-061-075>077-079-093>097-240400
...SOUTHERN MIDDLE TENNESSEE...

CITY           SKY/WX    TMP DP  RH WIND       PRES   REMARKS
COLUMBIA       CLEAR     50  46  87 CALM      29.91F
FAYETTEVILLE   CLEAR     52  48  87 SW3       29.96S
MURFREESBORO   CLEAR     51  48  89 S5        29.94S
PULASKI        CLEAR     46  46 100 CALM      29.95F
SHELBYVILLE    CLEAR     48  46  93 CALM      29.95S
TULLAHOMA      CLEAR     46  45  93 CALM      29.97S
WINCHESTER     CLEAR     46  45  93 CALM        N/A
$$


...KEY TO REMARKS...
VSB - VISIBILITY IN MILES
WCI - WIND CHILL INDEX
HX  - HEAT INDEX





USA.gov is the U.S. government's official web portal to all federal, state and local government web resources and services.